Location: Unspecified
(0.0000°N, 0.0000°E)
Time: 04:37:00
(UTC+00:00)

A-11 Canister half - Pass Details

Date: 22 April 2026
Orbit: 1523 x 1685 km, 47.3° (Epoch: 13 May)

Event Time Altitude Azimuth Distance (km) Brightness Sun altitude
Rises 19:36:03 0° 215° (SW) 4,711 11.8 -23.8°
Reaches altitude 10° 19:39:05 10° 212° (SSW) 3,743 11.2 -24.5°
Maximum altitude 19:48:34 72° 129° (SE) 1,663 8.9 -26.8°
Enters shadow 19:53:54 31° 53° (NE) 2,547 9.8 -28.1°
Drops below altitude 10° 19:58:21 10° 46° (NE) 3,863 - -29.2°
Sets 20:01:32 0° 44° (NE) 4,868 - -30.0°
